This demonstration page uses our WeatherBlox Daily Observations layout. Learn more.

Left ArrowRight Arrow

Hourly Observations for February 15, 2016

Temp ( °F °C ) Dew Point ( °F °C ) Humidity (%) Winds ( mph kmh ) Pressure ( in mb ) Visibility ( mi km ) Precip ( " mm )
12:53 am 00:53 Clear 58 14.4 47 8.3 67 67 N 7 11 30.28 1025 10 16 0.00 0.00
1:53 am 01:53 Clear 59 15 46 7.8 62 62 NNW 8 13 30.27 1025 10 16 0.00 0.00
2:53 am 02:53 Clear 60 15.6 46 7.8 60 60 NNW 9 15 30.24 1024 10 16 0.00 0.00
3:53 am 03:53 Clear 59 15 46 7.8 62 62 NNW 8 13 30.23 1024 10 16 0.00 0.00
4:53 am 04:53 Clear 60 15.6 46 7.8 60 60 N 3 6 30.22 1023 10 16 0.00 0.00
5:53 am 05:53 Clear 59 15 45 7.2 60 60 N 7 11 30.21 1023 10 16 0.00 0.00
6:53 am 06:53 Clear 58 14.4 45 7.2 62 62 NNW 6 9 30.21 1023 10 16 0.00 0.00
7:53 am 07:53 Sunny 58 14.4 46 7.8 65 65 NW 6 9 30.23 1024 10 16 0.00 0.00
8:53 am 08:53 Sunny 61 16.1 47 8.3 60 60 Calm 30.23 1024 10 16 0.00 0.00
9:53 am 09:53 Sunny 67 19.4 47 8.3 49 49 NNE 5 7 30.22 1023 10 16 0.00 0.00
10:53 am 10:53 Sunny 71 21.7 47 8.3 42 42 NW 7 11 30.19 1023 10 16 0.00 0.00
11:53 am 11:53 Sunny 74 23.3 46 7.8 37 37 WNW 7 11 30.17 1022 10 16 0.00 0.00
12:53 pm 12:53 Sunny 77 25 43 6.1 30 30 NW 7 11 30.14 1021 10 16 0.00 0.00
1:53 pm 13:53 Sunny 79 26.1 42 5.6 27 27 NW 7 11 30.10 1019 10 16 0.00 0.00
2:53 pm 14:53 Sunny 81 27.2 40 4.4 23 23 NNW 9 15 30.06 1018 10 16 0.00 0.00
3:53 pm 15:53 Sunny 81 27.2 42 5.6 25 25 WNW 7 11 30.06 1018 10 16 0.00 0.00
4:53 pm 16:53 Sunny 78 25.6 43 6.1 29 29 WNW 6 9 30.06 1018 10 16 0.00 0.00
5:53 pm 17:53 Clear 71 21.7 44 6.7 38 38 WNW 3 6 30.05 1018 10 16 0.00 0.00
6:53 pm 18:53 Clear 65 18.3 45 7.2 49 49 Calm 30.06 1018 10 16 0.00 0.00
7:53 pm 19:53 Clear 65 18.3 46 7.8 51 51 NE 8 13 30.06 1018 10 16 0.00 0.00
8:53 pm 20:53 Clear 58 14.4 47 8.3 67 67 N 7 11 30.07 1018 10 16 0.00 0.00
9:53 pm 21:53 Clear 57 13.9 46 7.8 67 67 Calm 30.07 1018 10 16 0.00 0.00
10:53 pm 22:53 Clear 59 15 46 7.8 62 62 N 6 9 30.06 1018 10 16 0.00 0.00
11:53 pm 23:53 Clear 56 13.3 46 7.8 70 70 Calm 30.06 1018 10 16 0.00 0.00

Powered by AerisWeather